Über Lemur-2-Greenberg
Group: 3 satellites
Beschreibung wird geladen...
Live-Position
3D-Globus wird geladen...
Nächste Überflüge
Höhenverlauf
Altitude vs Time
uPlot chart will show altitude changes over time
Zweizeiliger Elementsatz
1 42837U 17042N 26061.06097229 .00021487 00000-0 79596-3 0 9999
2 42837 97.3760 242.4763 0009561 29.7871 330.3910 15.27621481472011
Epoch: 2. März 2026 •
Age: 37 hours
Aktueller Status
Höhe 506.6 km
Geschwindigkeit 7.61 km/s
Subsatellitenpunkt -45.91°S,
59.45°E
Startdatum 14. Juli 2017
Alter 8.6 years
Typ other
Technische Details
Klassifizierung Payload
Masse 4.00 kg
Trockenmasse 4.00 kg
Gesamtmasse 4.00 kg
Länge 0.30 m
Durchmesser 0.10 m
Spannweite 0.30 m
Form Box
Hersteller SPIREG
Bus-Typ Cubesat 3U
Phasenstatus In Orbit
Besitzer/Staat SPIRE/US
Große Konstellationen
Loading constellations...